Flag Weather past 2 weeks in Alsdorf, North Rhine-Westphalia, Germany

Now
41 °F

Clear.


Feels Like: 33 °F
Forecast: 41 / 46 °F
Wind: 14 mph from East

Location: Geilenkirchen Airport

Current Time: Nov 26, 2014 at 1:31:42 AM

Latest Report: Nov 25, 2014 at 11:50 PM


Visibility: 10 mi

Pressure: 30.09 "Hg

Humidity: 87%

Dew point: 37 °F

Location of AlsdorfLocation

Historic Weather in Alsdorf — Graph

°F

Alsdorf temperature yesterday

Maximum temperature yesterday: 46 °F (at 1:50 PM)
Minimum temperature yesterday: 30 °F (at 5:50 AM)
Average temperature yesterday: 38 °F

Past Weeks' High & Low Weather Summary

 TemperatureHumidityPressure
High57 °F (Nov 13, 12:50 PM)100% (Nov 13, 4:50 AM)30.33 "Hg (Nov 13, 4:50 AM)
Low30 °F (Nov 25, 5:50 AM)63% (Nov 13, 1:50 PM)29.53 "Hg (Nov 16, 8:50 PM)
Average46 °F90%29.95 "Hg
* Reported Nov 10 11:50 PM — Nov 25 11:50 PM, Alsdorf, Weather by CustomWeather, © 2014

Note: Actual official high and low records may vary slightly from our data, if they occured in-between our weather recording intervals... More about our weather records

Advertising

Alsdorf weather history for previous 24 hours

 ConditionsComfort  
Time TempWeatherWind HumidityBarometerVisibility
11:50 PM
Nov 25
41 °FClear.14 mph87%30.09 "Hg10 mi
10:50 PM41 °FClear.16 mph87%30.09 "Hg10 mi
9:50 PM43 °FClear.17 mph76%30.09 "Hg10 mi
8:50 PM43 °FClear.15 mph76%30.12 "Hg10 mi
7:50 PM43 °FClear.13 mph81%30.12 "Hg10 mi
6:50 PM41 °FClear.12 mph87%30.15 "Hg10 mi
5:50 PM43 °FClear.9 mph81%30.15 "Hg10 mi
4:50 PM43 °FClear.9 mph81%30.15 "Hg10 mi
3:50 PM45 °FSunny.14 mph76%30.18 "Hg10 mi
2:50 PM46 °FSunny.16 mph76%30.18 "Hg10 mi
1:50 PM46 °FSunny.16 mph76%30.21 "Hg10 mi
12:50 PM45 °FSunny.16 mph81%30.24 "Hg10 mi
11:50 AM41 °FSunny.15 mph87%30.24 "Hg10 mi
10:50 AM39 °FSunny.10 mph93%30.27 "Hg10 mi
9:50 AM34 °FFog.10 mph93%30.27 "Hg3 mi
8:50 AM30 °FIce fog.8 mph100%30.27 "Hg1 mi
7:50 AM30 °FPassing clouds.9 mph100%30.27 "Hg4 mi
6:50 AM30 °FClear.6 mph100%30.30 "Hg10 mi
5:50 AM30 °FClear.3 mph100%30.30 "Hg10 mi
4:50 AM34 °FClear.3 mph93%30.30 "Hg10 mi
3:50 AM34 °FClear.5 mph100%30.30 "Hg10 mi
2:50 AM34 °FClear.3 mph100%30.30 "Hg10 mi
1:50 AM32 °FClear.2 mph100%30.30 "Hg10 mi
Weather by CustomWeather, © 2014

See weather overviewHow to use our weather pages